| time (UTC) | temp F | wind direction | speed MPH | gust MPH | rain 1hr in | rain 24hr in | rain mn in | humidity % | barometer mb |
| 20260507011535 | 46 | 253 | 0.0 | 1.0 | 0.00 | 0.25 | 0.25 | 95 | 1011.0 |
| 20260507010024 | 46 | 228 | 0.0 | 1.0 | 0.00 | 0.25 | 0.25 | 95 | 1010.8 |
| 20260507004518 | 46 | 282 | 0.0 | 1.0 | 0.00 | 0.28 | 0.25 | 94 | 1010.2 |
| 20260507003017 | 46 | 70 | 0.0 | 0.0 | 0.00 | 0.28 | 0.25 | 94 | 1010.0 |
| 20260507001543 | 46 | 70 | 0.0 | 0.0 | 0.00 | 0.28 | 0.25 | 93 | 1009.8 |
| 20260507000016 | 47 | 69 | 0.0 | 1.0 | 0.00 | 0.28 | 0.25 | 92 | 1009.7 |
| 20260506234514 | 47 | 321 | 0.0 | 6.0 | 0.00 | 0.28 | 0.25 | 92 | 1009.7 |
| 20260506233009 | 47 | 330 | 1.0 | 3.0 | 0.00 | 0.28 | 0.25 | 91 | 1009.3 |
| 20260506231507 | 47 | 299 | 1.0 | 4.0 | 0.00 | 0.28 | 0.25 | 91 | 1009.2 |
| 20260506230005 | 48 | 34 | 0.0 | 5.0 | 0.00 | 0.28 | 0.25 | 91 | 1008.9 |
| 20260506224505 | 48 | 300 | 1.0 | 6.0 | 0.00 | 0.28 | 0.25 | 91 | 1008.7 |
| 20260506223003 | 48 | 232 | 1.0 | 5.0 | 0.00 | 0.28 | 0.25 | 92 | 1008.5 |
| 20260506221503 | 48 | 332 | 1.0 | 5.0 | 0.00 | 0.28 | 0.25 | 92 | 1008.4 |
| 20260506220003 | 49 | 316 | 1.0 | 8.0 | 0.00 | 0.28 | 0.25 | 92 | 1008.3 |
| 20260506214501 | 49 | 10 | 1.0 | 6.0 | 0.01 | 0.28 | 0.25 | 93 | 1007.9 |
| 20260506213106 | 49 | 53 | 0.0 | 3.0 | 0.01 | 0.28 | 0.25 | 94 | 1007.5 |
| 20260506211559 | 48 | 230 | 0.0 | 4.0 | 0.02 | 0.28 | 0.25 | 95 | 1007.3 |
| 20260506204558 | 48 | 322 | 1.0 | 5.0 | 0.01 | 0.40 | 0.24 | 95 | 1007.1 |
| 20260506203120 | 48 | 236 | 2.0 | 7.0 | 0.01 | 0.40 | 0.24 | 94 | 1007.0 |
| 20260506201555 | 48 | 240 | 0.0 | 6.0 | 0.00 | 0.39 | 0.23 | 94 | 1006.9 |
| 20260506200058 | 48 | 272 | 1.0 | 8.0 | 0.00 | 0.39 | 0.23 | 94 | 1006.9 |
| 20260506194555 | 48 | 217 | 2.0 | 7.0 | 0.00 | 0.42 | 0.23 | 94 | 1006.8 |
| 20260506193101 | 48 | 230 | 1.0 | 7.0 | 0.00 | 0.42 | 0.23 | 94 | 1006.8 |
| 20260506191545 | 49 | 241 | 2.0 | 6.0 | 0.00 | 0.42 | 0.23 | 94 | 1006.7 |
| 20260506190049 | 50 | 260 | 0.0 | 4.0 | 0.00 | 0.42 | 0.23 | 95 | 1006.4 |
| 20260506184546 | 50 | 256 | 0.0 | 3.0 | 0.00 | 0.46 | 0.23 | 95 | 1006.3 |
| 20260506183045 | 50 | 328 | 0.0 | 2.0 | 0.00 | 0.46 | 0.23 | 96 | 1006.2 |
| 20260506181549 | 50 | 81 | 0.0 | 1.0 | 0.00 | 0.46 | 0.23 | 96 | 1006.1 |
| 20260506180041 | 49 | 264 | 0.0 | 2.0 | 0.00 | 0.46 | 0.23 | 96 | 1006.2 |
| 20260506174540 | 49 | 13 | 0.0 | 4.0 | 0.00 | 0.46 | 0.23 | 96 | 1006.1 |
| 20260506173045 | 49 | 348 | 0.0 | 3.0 | 0.01 | 0.46 | 0.23 | 96 | 1006.2 |
| 20260506171539 | 49 | 30 | 0.0 | 6.0 | 0.03 | 0.46 | 0.23 | 96 | 1006.2 |
| 20260506170044 | 48 | 79 | 0.0 | 5.0 | 0.06 | 0.46 | 0.23 | 96 | 1006.2 |
| 20260506164549 | 49 | 32 | 1.0 | 9.0 | 0.07 | 0.46 | 0.23 | 96 | 1006.3 |
| 20260506163040 | 50 | 319 | 0.0 | 4.0 | 0.07 | 0.45 | 0.22 | 96 | 1006.4 |
| 20260506161535 | 51 | 237 | 0.0 | 6.0 | 0.05 | 0.43 | 0.20 | 95 | 1006.3 |
| 20260506160036 | 53 | 250 | 0.0 | 4.0 | 0.02 | 0.40 | 0.17 | 96 | 1006.2 |
| 20260506154634 | 53 | 212 | 0.0 | 1.0 | 0.02 | 0.39 | 0.16 | 96 | 1006.1 |
| 20260506153029 | 53 | 245 | 0.0 | 1.0 | 0.02 | 0.38 | 0.15 | 96 | 1006.1 |
| 20260506151530 | 53 | 268 | 0.0 | 1.0 | 0.04 | 0.38 | 0.15 | 97 | 1006.1 |
| 20260506150028 | 52 | 268 | 0.0 | 1.0 | 0.06 | 0.38 | 0.15 | 97 | 1006.2 |
| 20260506144528 | 51 | 268 | 0.0 | 1.0 | 0.07 | 0.37 | 0.14 | 97 | 1006.3 |
| 20260506143024 | 51 | 168 | 0.0 | 3.0 | 0.08 | 0.36 | 0.13 | 97 | 1006.6 |
| 20260506141529 | 51 | 160 | 0.0 | 2.0 | 0.06 | 0.34 | 0.11 | 97 | 1006.9 |
| 20260506140022 | 51 | 148 | 0.0 | 2.0 | 0.04 | 0.32 | 0.09 | 97 | 1007.0 |
| 20260506134521 | 51 | 263 | 0.0 | 1.0 | 0.02 | 0.30 | 0.07 | 97 | 1007.1 |
| 20260506133024 | 51 | 231 | 0.0 | 1.0 | 0.00 | 0.28 | 0.05 | 97 | 1007.0 |
| 20260506131520 | 51 | 77 | 0.0 | 1.0 | 0.00 | 0.28 | 0.05 | 97 | 1006.8 |
| 20260506130020 | 50 | 76 | 0.0 | 1.0 | 0.01 | 0.28 | 0.05 | 97 | 1006.6 |
| 20260506124618 | 50 | 20 | 0.0 | 1.0 | 0.01 | 0.28 | 0.05 | 97 | 1006.9 |
| 20260506123018 | 50 | 75 | 0.0 | 1.0 | 0.02 | 0.28 | 0.05 | 97 | 1006.9 |
| 20260506121517 | 50 | 127 | 0.0 | 1.0 | 0.02 | 0.28 | 0.05 | 97 | 1007.1 |
| 20260506120034 | 49 | 127 | 0.0 | 1.0 | 0.02 | 0.27 | 0.04 | 97 | 1007.3 |
| 20260506114518 | 49 | 170 | 0.0 | 1.0 | 0.02 | 0.27 | 0.04 | 97 | 1007.7 |
| 20260506113015 | 50 | 244 | 0.0 | 1.0 | 0.01 | 0.26 | 0.03 | 97 | 1007.9 |
| 20260506111514 | 49 | 149 | 0.0 | 0.0 | 0.01 | 0.26 | 0.03 | 97 | 1007.7 |
| 20260506110013 | 49 | 157 | 0.0 | 1.0 | 0.00 | 0.25 | 0.02 | 97 | 1007.6 |
| 20260506104525 | 49 | 255 | 0.0 | 2.0 | 0.01 | 0.25 | 0.02 | 97 | 1007.5 |
| 20260506103033 | 49 | 242 | 0.0 | 2.0 | 0.02 | 0.25 | 0.02 | 97 | 1007.5 |
| 20260506101510 | 49 | 83 | 1.0 | 8.0 | 0.02 | 0.25 | 0.02 | 97 | 1007.1 |
| 20260506100008 | 49 | 229 | 0.0 | 1.0 | 0.02 | 0.26 | 0.02 | 97 | 1007.6 |
| 20260506094510 | 49 | 309 | 0.0 | 1.0 | 0.01 | 0.25 | 0.01 | 97 | 1007.8 |
| 20260506093016 | 49 | 244 | 0.0 | 3.0 | 0.00 | 0.24 | 0.00 | 96 | 1007.7 |
| 20260506091505 | 50 | 238 | 0.0 | 2.0 | 0.00 | 0.24 | 0.00 | 96 | 1007.6 |
| 20260506090004 | 50 | 195 | 0.0 | 1.0 | 0.00 | 0.24 | 0.00 | 96 | 1007.3 |
| 20260506084634 | 50 | 168 | 0.0 | 1.0 | 0.00 | 0.24 | 0.00 | 96 | 1007.3 |
| 20260506083058 | 50 | 167 | 0.0 | 0.0 | 0.00 | 0.24 | 0.00 | 96 | 1007.5 |
| 20260506081600 | 50 | 168 | 0.0 | 0.0 | 0.00 | 0.24 | 0.00 | 96 | 1007.8 |
| 20260506073151 | 50 | 242 | 0.0 | 1.0 | 0.00 | 0.24 | 0.00 | 96 | 1008.2 |
| 20260506071549 | 50 | 241 | 0.0 | 1.0 | 0.00 | 0.24 | 0.00 | 96 | 1008.4 |
| 20260506061543 | 51 | 273 | 0.0 | 0.0 | 0.00 | 0.24 | 0.00 | 95 | 1009.0 |
| 20260506044537 | 52 | 250 | 0.0 | 1.0 | 0.00 | 0.24 | 0.00 | 93 | 1009.6 |
| 20260506043030 | 52 | 250 | 0.0 | 1.0 | 0.00 | 0.24 | 0.00 | 93 | 1009.6 |
| 20260506041529 | 53 | 250 | 0.0 | 1.0 | 0.00 | 0.24 | 0.00 | 92 | 1009.4 |
| 20260506040032 | 53 | 250 | 0.0 | 0.0 | 0.00 | 0.24 | 0.00 | 91 | 1009.8 |
| 20260506034524 | 53 | 250 | 0.0 | 1.0 | 0.00 | 0.24 | 0.24 | 91 | 1009.8 |
| 20260506033023 | 53 | 127 | 0.0 | 0.0 | 0.00 | 0.24 | 0.24 | 92 | 1009.6 |
| 20260506031523 | 53 | 228 | 0.0 | 1.0 | 0.00 | 0.24 | 0.24 | 92 | 1010.1 |
| 20260506030021 | 54 | 219 | 0.0 | 1.0 | 0.00 | 0.24 | 0.24 | 92 | 1009.4 |
| 20260506024521 | 54 | 164 | 0.0 | 1.0 | 0.00 | 0.24 | 0.24 | 92 | 1009.6 |
| 20260506023034 | 54 | 164 | 0.0 | 2.0 | 0.00 | 0.24 | 0.24 | 92 | 1009.5 |
| 20260506021532 | 54 | 161 | 0.0 | 2.0 | 0.00 | 0.24 | 0.24 | 92 | 1009.3 |
| 20260506020025 | 54 | 243 | 0.0 | 2.0 | 0.00 | 0.24 | 0.24 | 91 | 1009.0 |
| 20260506014518 | 55 | 1 | 0.0 | 3.0 | 0.01 | 0.24 | 0.24 | 89 | 1008.8 |
| 20260506013018 | 55 | 319 | 1.0 | 6.0 | 0.02 | 0.24 | 0.24 | 88 | 1009.3 |